Torna al catalogo

BASIL

AttivoScienzaSSO
NORAD 65301·PAYLOAD·🇷🇼 Rwanda

Lanciato Aug 23, 2025 da Rocket Lab Launch Complex 1

Loading…

Prossimi Passaggi (prossime 24 ore)

TLE

AggiornatoSource: Space-Track

Epoca: Sep 14, 2026, 04:13 UTC

1 65301U 25185E   26257.17588164  .00006379  00000-0  83233-3 0  9995
2 65301  97.9657 339.8599 0015536 149.9023 210.3085 14.80786471 57001

Traccia BASIL in tempo reale con AllMySat

Download on the App Store